TimeEST,TemperatureF,Dew PointF,Humidity,Sea Level PressureIn,VisibilityMPH,Wind Direction,Wind SpeedMPH,Gust SpeedMPH,PrecipitationIn,Events,Conditions,WindDirDegrees,DateUTC
12:15 AM,32.2,30.2,92,30.23,4.0,Calm,Calm,-,N/A,,Clear,0,2012-11-20 05:15:00
12:35 AM,32.0,30.0,92,30.23,7.0,Calm,Calm,-,N/A,,Clear,0,2012-11-20 05:35:00
12:55 AM,32.2,30.6,94,30.23,7.0,Calm,Calm,-,N/A,,Clear,0,2012-11-20 05:55:00
1:15 AM,32.7,31.3,94,30.21,5.0,Calm,Calm,-,N/A,,Clear,0,2012-11-20 06:15:00
1:35 AM,32.5,30.7,93,30.22,7.0,Calm,Calm,-,N/A,,Clear,0,2012-11-20 06:35:00
1:55 AM,32.0,30.4,94,30.21,7.0,Calm,Calm,-,N/A,,Clear,0,2012-11-20 06:55:00
2:15 AM,32.4,30.9,94,30.21,5.0,Calm,Calm,-,N/A,,Clear,0,2012-11-20 07:15:00
2:35 AM,30.7,28.6,92,30.22,5.0,Calm,Calm,-,N/A,,Clear,0,2012-11-20 07:35:00
2:55 AM,31.1,29.3,93,30.21,4.0,Calm,Calm,-,N/A,,Clear,0,2012-11-20 07:55:00
3:15 AM,31.1,29.1,92,30.21,7.0,Calm,Calm,-,N/A,,Clear,0,2012-11-20 08:15:00
3:35 AM,31.1,29.1,92,30.21,7.0,Calm,Calm,-,N/A,,Clear,0,2012-11-20 08:35:00
7:15 AM,30.2,28.2,92,30.20,5.0,Calm,Calm,-,N/A,,Scattered Clouds,0,2012-11-20 12:15:00
7:35 AM,30.2,28.0,92,30.20,5.0,Calm,Calm,-,N/A,,Scattered Clouds,0,2012-11-20 12:35:00
7:55 AM,31.1,29.1,92,30.20,4.0,Calm,Calm,-,N/A,,Clear,0,2012-11-20 12:55:00
8:15 AM,32.0,30.0,92,30.21,5.0,Calm,Calm,-,N/A,,Clear,0,2012-11-20 13:15:00
8:35 AM,32.5,30.9,94,30.21,5.0,Calm,Calm,-,N/A,,Clear,0,2012-11-20 13:35:00
8:55 AM,33.8,31.8,92,30.22,5.0,Calm,Calm,-,N/A,,Clear,0,2012-11-20 13:55:00
9:15 AM,35.6,32.9,90,30.21,4.0,Calm,Calm,-,N/A,,Clear,0,2012-11-20 14:15:00
9:35 AM,36.7,33.8,89,30.21,4.0,Calm,Calm,-,N/A,,Scattered Clouds,0,2012-11-20 14:35:00
9:55 AM,37.9,34.7,88,30.21,5.0,Calm,Calm,-,N/A,,Clear,0,2012-11-20 14:55:00
10:15 AM,39.4,35.6,86,30.20,5.0,Calm,Calm,-,N/A,,Clear,0,2012-11-20 15:15:00
10:35 AM,40.8,36.1,83,30.20,7.0,Calm,Calm,-,N/A,,Clear,0,2012-11-20 15:35:00
10:55 AM,42.6,36.7,79,30.18,10.0,Calm,Calm,-,N/A,,Clear,0,2012-11-20 15:55:00
11:15 AM,44.4,36.9,75,30.17,10.0,Calm,Calm,-,N/A,,Clear,0,2012-11-20 16:15:00
11:35 AM,45.0,37.0,74,30.17,10.0,Calm,Calm,-,N/A,,Clear,0,2012-11-20 16:35:00
11:55 AM,46.4,37.6,71,30.16,4.0,Calm,Calm,-,N/A,,Haze,0,2012-11-20 16:55:00
12:15 PM,47.3,37.6,69,30.14,10.0,Calm,Calm,-,N/A,,Clear,0,2012-11-20 17:15:00
12:35 PM,48.0,37.9,68,30.13,10.0,Calm,Calm,-,N/A,,Clear,0,2012-11-20 17:35:00
12:55 PM,48.9,38.3,67,30.13,10.0,Calm,Calm,-,N/A,,Clear,0,2012-11-20 17:55:00
1:15 PM,49.1,38.3,66,30.12,10.0,Calm,Calm,-,N/A,,Clear,0,2012-11-20 18:15:00
1:35 PM,49.3,38.1,65,30.11,10.0,Calm,Calm,-,N/A,,Clear,0,2012-11-20 18:35:00
1:55 PM,49.5,38.1,65,30.11,10.0,Calm,Calm,-,N/A,,Clear,0,2012-11-20 18:55:00
2:15 PM,50.0,38.3,64,30.10,10.0,Calm,Calm,-,N/A,,Clear,0,2012-11-20 19:15:00
2:35 PM,50.4,38.5,64,30.09,10.0,Calm,Calm,-,N/A,,Clear,0,2012-11-20 19:35:00
2:55 PM,50.4,38.8,65,30.08,7.0,Calm,Calm,-,N/A,,Clear,0,2012-11-20 19:55:00
3:15 PM,50.7,38.7,63,30.08,10.0,Calm,Calm,-,N/A,,Clear,0,2012-11-20 20:15:00
3:35 PM,50.4,38.5,64,30.09,10.0,Calm,Calm,-,N/A,,Clear,0,2012-11-20 20:35:00
3:55 PM,50.5,38.3,63,30.09,10.0,Calm,Calm,-,N/A,,Scattered Clouds,0,2012-11-20 20:55:00
4:15 PM,50.9,38.8,63,30.10,10.0,Calm,Calm,-,N/A,,Scattered Clouds,0,2012-11-20 21:15:00
4:35 PM,49.1,38.5,67,30.11,10.0,Calm,Calm,-,N/A,,Scattered Clouds,0,2012-11-20 21:35:00
4:55 PM,49.5,38.5,66,30.11,10.0,Calm,Calm,-,N/A,,Scattered Clouds,0,2012-11-20 21:55:00
5:15 PM,47.7,38.3,70,30.11,7.0,ESE,3.5,-,N/A,,Mostly Cloudy,110,2012-11-20 22:15:00
5:35 PM,47.3,38.7,72,30.11,5.0,Calm,Calm,-,N/A,,Haze,0,2012-11-20 22:35:00
5:55 PM,47.3,38.3,71,30.11,4.0,Calm,Calm,-,N/A,,Haze,0,2012-11-20 22:55:00
6:15 PM,47.3,38.3,71,30.12,10.0,Calm,Calm,-,N/A,,Scattered Clouds,0,2012-11-20 23:15:00
6:35 PM,45.3,37.9,75,30.12,10.0,Calm,Calm,-,N/A,,Clear,0,2012-11-20 23:35:00
6:55 PM,43.0,37.8,82,30.12,10.0,Calm,Calm,-,N/A,,Scattered Clouds,0,2012-11-20 23:55:00
7:15 PM,43.2,37.6,81,30.13,10.0,Calm,Calm,-,N/A,,Scattered Clouds,0,2012-11-21 00:15:00
7:35 PM,39.9,35.6,85,30.13,7.0,Calm,Calm,-,N/A,,Clear,0,2012-11-21 00:35:00
7:55 PM,39.2,35.2,86,30.13,5.0,Calm,Calm,-,N/A,,Clear,0,2012-11-21 00:55:00
8:15 PM,37.4,34.2,88,30.13,7.0,Calm,Calm,-,N/A,,Clear,0,2012-11-21 01:15:00
8:35 PM,37.0,34.2,89,30.14,5.0,Calm,Calm,-,N/A,,Clear,0,2012-11-21 01:35:00
8:55 PM,37.0,33.6,87,30.14,5.0,Calm,Calm,-,N/A,,Clear,0,2012-11-21 01:55:00
9:15 PM,34.7,32.0,90,30.14,5.0,Calm,Calm,-,N/A,,Clear,0,2012-11-21 02:15:00
9:35 PM,36.1,33.8,91,30.15,5.0,Calm,Calm,-,N/A,,Clear,0,2012-11-21 02:35:00
9:55 PM,33.8,31.8,92,30.15,7.0,Calm,Calm,-,N/A,,Clear,0,2012-11-21 02:55:00
10:15 PM,34.2,31.8,91,30.15,5.0,Calm,Calm,-,N/A,,Clear,0,2012-11-21 03:15:00
10:35 PM,33.3,31.5,93,30.14,4.0,Calm,Calm,-,N/A,,Clear,0,2012-11-21 03:35:00
10:55 PM,33.1,31.6,94,30.15,3.0,Calm,Calm,-,N/A,,Clear,0,2012-11-21 03:55:00
11:15 PM,32.7,31.5,95,30.15,3.0,Calm,Calm,-,N/A,,Clear,0,2012-11-21 04:15:00
11:35 PM,31.6,29.8,93,30.15,3.0,Calm,Calm,-,N/A,,Clear,0,2012-11-21 04:35:00
11:55 PM,31.5,29.5,92,30.15,3.0,Calm,Calm,-,N/A,,Clear,0,2012-11-21 04:55:00